Regional Weather Roundup
Issued by NWS

Home | Current Version | Previous Version | Text Only | Print | Product List | Glossary Off
Versions: 1 2 3 4 5 6 7 8 9 10 11 12 13 14 15 16 17 18 19 20 21 22 23 24 25 26 27 28 29 30 31 32 33 34 35 36 37 38 39 40 41 42 43 44 45 46 47 48 49 50

068
ASUS43 KLSX 280010
RWRMO

WEATHER SUMMARY FOR MISSOURI
NATIONAL WEATHER SERVICE SPRINGFIELD MO
600 PM CST MON FEB 27 2017

NOTE: "FAIR" INDICATES FEW OR NO CLOUDS BELOW 12,000 FEET WITH NO
       SIGNIFICANT WEATHER AND/OR OBSTRUCTIONS TO VISIBILITY.
       CURRENT SKY AND/OR WEATHER CONDITIONS ARE NOT AVAILABLE FOR
       CHILLICOTHE AND FARMINGTON.

MOZ001>031-035>038-043-044-053-054-280100-
...NORTHERN AND WESTERN MISSOURI...

CITY           SKY/WX    TMP DP  RH WIND       PRES   REMARKS
KANSAS CTY INT PTCLDY    60  40  47 S14       29.78F
6HR MIN TEMP:  55; 6HR MAX TEMP:  62;

KANSAS C DTWN  PTCLDY    63  40  42 SE6       29.78F
6HR MIN TEMP:  56; 6HR MAX TEMP:  65;

LEE`S SUMMIT   MOCLDY    62  41  46 SE12G20   29.80F
6HR MIN TEMP:  56; 6HR MAX TEMP:  64;

ST JOSEPH      CLOUDY    59  35  40 SE12      29.78F
6HR MIN TEMP:  56; 6HR MAX TEMP:  61;

CHILLICOTHE      N/A     59  32  36 SE9       29.84F
6HR MIN TEMP:  53; 6HR MAX TEMP:  62;

KIRKSVILLE     CLOUDY    56  30  37 SE12      29.88F
6HR MIN TEMP:  55; 6HR MAX TEMP:  61;


$$
MOZ066>068-077>081-088>096-101>105-280100-
...SOUTHWEST MISSOURI...

CITY           SKY/WX    TMP DP  RH WIND       PRES   REMARKS
SPRINGFIELD    MOCLDY    63  48  58 SE18G24   29.88S
6HR MIN TEMP:  59; 6HR MAX TEMP:  66; 6HR PCP: TRACE;

JOPLIN         CLOUDY    65  53  65 S13       29.85S
6HR MIN TEMP:  62; 6HR MAX TEMP:  69;

BRANSON        CLOUDY    61  48  63 SE12      29.95R

$$
MOZ032>034-039>042-045>050-055>058-069>072-280100-
...CENTRAL MISSOURI...

CITY           SKY/WX    TMP DP  RH WIND       PRES   REMARKS
COLUMBIA       CLOUDY    62  35  36 SE10      29.89F
6HR MIN TEMP:  58; 6HR MAX TEMP:  66;

JEFFERSON CITY CLOUDY    63  37  38 S12       29.89F
6HR MIN TEMP:  54; 6HR MAX TEMP:  66;

ROLLA          CLOUDY    60  37  42 SE10      29.93S
6HR MIN TEMP:  58; 6HR MAX TEMP:  65; 6HR PCP: TRACE;

SEDALIA        MOCLDY    62  39  42 S13       29.87S
6HR MIN TEMP:  60; 6HR MAX TEMP:  66; 6HR PCP: TRACE;

WHITEMAN AFB   MOCLDY    60  43  53 S13       29.83S
WARRENSBURG    CLOUDY    61  41  48 SE13      29.83S
OSAGE BEACH    PTCLDY    61  40  45 SE8       29.90F

$$
MOZ051-052-059>065-280100-
...EAST CENTRAL MISSOURI...

CITY           SKY/WX    TMP DP  RH WIND       PRES   REMARKS
ST LOUIS INTL  CLOUDY    63  41  44 SE16      29.98F
6HR MIN TEMP:  59; 6HR MAX TEMP:  65;

SPIRIT OF STL  CLOUDY    63  37  38 SE7       29.96F
6HR MIN TEMP:  58; 6HR MAX TEMP:  66;

ST CHARLES     CLOUDY    60  40  47 SE12      29.96F
6HR MIN TEMP:  57; 6HR MAX TEMP:  65;


$$
MOZ072>076-082>087-097>100-106>115-280100-
...SOUTH CENTRAL AND SOUTHEAST MISSOURI...

CITY           SKY/WX    TMP DP  RH WIND       PRES   REMARKS
CAPE GIRARDEAU MOCLDY    59  48  67 S7        30.05S
6HR MIN TEMP:  56; 6HR MAX TEMP:  63;

FARMINGTON     PTCLDY    57  47  69 SE14G20   30.02F
6HR MIN TEMP:  57; 6HR MAX TEMP:  66;

POPLAR BLUFF   CLEAR     58  50  75 S6        30.05S
6HR MIN TEMP:  58; 6HR MAX TEMP:  63;

WEST PLAINS    PTCLDY    57  48  72 S16G24    30.00S
6HR MIN TEMP:  57; 6HR MAX TEMP:  64;


$$




USA.gov is the U.S. government's official web portal to all federal, state and local government web resources and services.